Wilmington, OH NWS (KILN) Doppler Radar Loop using GRLevel3 Software
Last 10 volume scans
Wilmington, OH Radar using GRLevel3

 
 

Wilmington, OH NWS Radar Loop
Wilmington OH Radar Loop

Regional Radar Loop
Regional Radar Loop

GOES 16 GeoColor (True Color daytime, multispectral IR at night) - Great Lakes Region Loop
Regional GOES 16 IR Band 15 - Great Lakes Region Loop


National Weather Service Regional Observations

Station State Time Temperature Dew Point RH Wind Heat Index Wind Chill Pressure Visibility Weather
Charleston West Virginia 1/17/2019 9:54 PM 36.0 36.0 100 SSE (160) at 5 N/A 32.0 30.02 5.0 Light Rain, Mist
Chicago O'hare Illinois 1/17/2019 9:51 PM 32.0 26.1 78 WNW (290) at 8 N/A 25.2 30.03 10.0 --
Cleveland Ohio 1/17/2019 9:51 PM 34.0 30.9 88 S (180) at 9 N/A 26.6 29.99 5.0 Light Snow
Columbus Ohio 1/17/2019 9:51 PM 35.1 33.1 92 SE (140) at 3 N/A 32.2 29.98 5.0 Light Drizzle, Mist
Covington Kentucky 1/17/2019 9:52 PM 39.0 37.0 93 W (280) at 13 N/A 31.6 30.01 0.8 Mist
Dayton Ohio 1/17/2019 9:37 PM 36.0 34.0 92 WSW (250) at 9 N/A 29.3 29.99 0.3 Fog
Dothan Alabama 1/17/2019 9:53 PM 55.9 48.9 77 SSW (210) at 8 N/A N/A 30.20 10.0 --
Evansville Indiana 1/17/2019 9:54 PM 39.9 37.9 93 NW (320) at 5 N/A 36.7 30.11 10.0 --
Fort Wayne Indiana 1/17/2019 9:54 PM 34.0 34.0 100 WNW (300) at 6 N/A 29.1 30.00 1.0 Mist
Frankfort Kentucky 1/17/2019 9:53 PM 44.1 42.1 93 WSW (250) at 6 N/A 40.8 30.02 10.0 --
Huntsville Alabama 1/17/2019 9:53 PM 48.0 48.0 100 S (180) at 3 N/A 46.9 30.10 4.0 Mist
Indianapolis Indiana 1/17/2019 9:54 PM 34.0 34.0 100 WNW (290) at 10 N/A 26.1 30.05 1.5 Mist
Knoxville Tennessee 1/17/2019 9:53 PM 43.0 43.0 100 W (260) at 8 N/A 38.1 30.09 10.0 --
Lexington Kentucky 1/17/2019 9:54 PM 44.1 41.0 89 WSW (250) at 8 N/A 39.6 30.03 5.0 Light Rain, Mist
Louisville Kentucky 1/17/2019 9:25 PM 45.0 41.0 86 W (270) at 7 N/A 41.2 30.04 10.0 --
Nashville Tennessee 1/17/2019 9:53 PM 48.0 46.0 93 SSW (200) at 3 N/A 46.9 30.08 2.5 Light Rain, Mist
Noctor/Jackson Kentucky 1/17/2019 9:53 PM 39.9 39.9 100 Calm N/A N/A 30.02 5.0 Mist
Paducah Kentucky 1/17/2019 9:53 PM 45.0 39.0 80 N (350) at 5 N/A 42.6 30.10 10.0 --
Pittsburgh Pennsylvania 1/17/2019 9:51 PM 30.9 30.9 100 SSE (160) at 6 N/A 25.2 30.00 1.5 Light Snow, Mist
St. Louis Missouri 1/17/2019 9:51 PM 36.0 33.1 89 WNW (300) at 5 N/A 32.0 30.14 10.0 --
West Palm Beach Florida 1/17/2019 9:53 PM 64.0 60.1 87 Calm N/A N/A 30.18 10.0 --
Wilmington Ohio 1/17/2019 9:54 PM 36.0 35.1 96 WSW (250) at 8 N/A 29.7 29.99 0.8 Mist

These are regional hourly observations made by the National Weather Service. The observations are usually made between 50 and 59 minutes past the hour and are usually available by 15 minutes past the next hour.


This page will reload automatically every 10 minutes.

38,797 Page Views